Main page
METAR-TAF:

METAR-TAF

Airports :

Chamberlain Municipal Airport

Chamberlain, South Dakota, United States

latitude: 43-46-00N, longitude: 099-19-06W, elevation: 1692 ft

Current weather observation

The report was made 15 minutes ago, at 22:55 UTC
Wind 7 mph from the North
Temperature 91°F
Humidity 49%
Pressure 29.78 in. Hg
Visibility: 10 miles
Clear sky

METAR: K9V9 012255Z AUTO 01006KT 10SM CLR 33/21 A2978 RMK AO2 T03250213

Time: 18:10 (23:10 UTC)


TAF: missing

Weather observations and forecasts of more than 4000 airports (METAR and TAF reports).

The available stations are represented by yellow and red dots on the map.

Hover mouse over dot to see the name of the station.

Then click to see weather observations and forecasts.

To change the map : click on the green buttons with a black cross to zoom in, on the green button with a dash to zoom out, or on the green arrows for adjacent maps.


METAR-TAF: